World > North America > United States > New Jersey > East Rutherford

East Rutherford, NJ Hourly Weather Conditions

Feedback E-mail the Weather

Quick WX

East Rutherford, NJ Weather Maps

°F °C°F °C
East Rutherford Weather Map
UTC Time: 1/28/2023, 20:08
Your Time:

East Rutherford, NJ Regional Weather

Expires:202301282100;;399150
ASUS41 KOKX 282005
RWROKX

Regional Weather Roundup
National Weather Service New York NY
300 PM EST SAT JAN 28 2023

Note: "FAIR" indicates few or no clouds below 12,000 feet with no
significant weather and/or obstructions to visibility.


NJZ001-105-106-008-010-013-015-019>022-104-282100-
New Jersey
  
CITY           SKY/WX    TMP DP  RH WIND       PRES   REMARKS
Newark/Liberty PTSUNNY   53  24  32 W13       30.23R                  
Teterboro      PTSUNNY   50  25  37 W10       30.22R                  
Caldwell       PTSUNNY   51  22  31 W10       30.23R                  
Somerville     PTSUNNY   52  25  35 VRB5      30.22R                  
Linden         NOT AVBL                                               
Perth Amboy      N/A     50 N/A N/A W14         N/A                   
Sussex         PTSUNNY   50  26  39 SW8       30.20R                  
Andover          N/A     50  25  37 SW6       30.21R                  
Trenton        CLOUDY    51  27  39 W12       30.25R                  
Millville      MOSUNNY   55  30  38 W12       30.28R                  
Atlantic City  MOSUNNY   55  27  34 W15G25    30.27R                  
Wrightstown    CLOUDY    51  28  40 W13G21    30.26R                  
Toms River     NOT AVBL                                               
Belmar         PTSUNNY  N/A N/A N/A W10       30.26R                  
$$
 

SKY/WX - Weather  TMP - Temperature  DP - Dew Point  RH - Humidity
WIND - Wind Direction/Speed PRES - Barometric Pressure VSB - Visibility
WCI - Wind Chill Index E13G22 Wind - East Wind 13 mph/Gusts of 22 mph

Trending Headlines

Trending Entertainment Headlines

East Rutherford Radar Loop

Use the map search tool if you want to place a location marker on the radar map...

East Rutherford Quick Facts

National Two Day Weather Forecast


E-mail the East Rutherford Weather Forecast

Voice your opinion or tell us about page issues...